TimePDT,TemperatureF,Dew PointF,Humidity,Sea Level PressureIn,VisibilityMPH,Wind Direction,Wind SpeedMPH,Gust SpeedMPH,PrecipitationIn,Events,Conditions,WindDirDegrees,DateUTC
12:53 AM,70.0,51.1,51,29.97,10.0,WSW,10.4,-,N/A,,Clear,240,2013-08-18 07:53:00
1:53 AM,70.0,51.1,51,29.98,10.0,SW,10.4,-,N/A,,Clear,230,2013-08-18 08:53:00
2:53 AM,61.0,51.1,70,29.99,10.0,Calm,Calm,-,N/A,,Clear,0,2013-08-18 09:53:00
3:53 AM,64.0,52.0,65,30.00,10.0,SW,6.9,-,N/A,,Clear,220,2013-08-18 10:53:00
4:53 AM,57.9,51.1,78,30.01,10.0,SSE,3.5,-,N/A,,Clear,150,2013-08-18 11:53:00
5:53 AM,61.0,52.0,72,30.02,10.0,SSW,4.6,-,N/A,,Clear,210,2013-08-18 12:53:00
6:53 AM,62.1,52.0,70,30.04,10.0,Calm,Calm,-,N/A,,Clear,0,2013-08-18 13:53:00
7:53 AM,70.0,54.0,57,30.04,10.0,WSW,3.5,-,N/A,,Clear,250,2013-08-18 14:53:00
8:53 AM,73.0,55.9,55,30.05,10.0,WNW,4.6,-,N/A,,Clear,290,2013-08-18 15:53:00
9:53 AM,78.1,55.0,45,30.04,10.0,West,8.1,-,N/A,,Clear,270,2013-08-18 16:53:00
10:53 AM,81.0,53.1,38,30.03,10.0,WSW,5.8,-,N/A,,Clear,250,2013-08-18 17:53:00
11:53 AM,84.0,51.1,32,30.02,10.0,WSW,10.4,-,N/A,,Clear,250,2013-08-18 18:53:00
12:53 PM,87.1,48.0,26,30.00,10.0,Variable,6.9,16.1,N/A,,Clear,0,2013-08-18 19:53:00
1:53 PM,89.1,48.0,24,29.99,10.0,West,9.2,18.4,N/A,,Clear,280,2013-08-18 20:53:00
2:53 PM,91.0,50.0,24,29.96,10.0,WNW,8.1,-,N/A,,Clear,290,2013-08-18 21:53:00
3:53 PM,93.0,48.0,21,29.93,10.0,West,9.2,-,N/A,,Clear,280,2013-08-18 22:53:00
4:53 PM,93.0,48.0,21,29.91,10.0,West,8.1,19.6,N/A,,Clear,260,2013-08-18 23:53:00
5:53 PM,93.0,48.0,21,29.90,10.0,West,10.4,-,N/A,,Clear,280,2013-08-19 00:53:00
6:53 PM,90.0,48.0,24,29.89,10.0,WSW,5.8,-,N/A,,Clear,250,2013-08-19 01:53:00
7:53 PM,82.9,48.0,29,29.89,10.0,SW,5.8,-,N/A,,Clear,230,2013-08-19 02:53:00
8:53 PM,79.0,45.0,30,29.90,10.0,SSW,9.2,-,N/A,,Clear,210,2013-08-19 03:53:00
9:53 PM,77.0,45.0,32,29.92,10.0,SSW,12.7,-,N/A,,Clear,210,2013-08-19 04:53:00
10:53 PM,77.0,48.0,36,29.94,10.0,SW,13.8,-,N/A,,Clear,220,2013-08-19 05:53:00
11:53 PM,75.0,48.9,40,29.95,10.0,SW,16.1,23.0,N/A,,Clear,230,2013-08-19 06:53:00